| time (UTC) | temp F | wind direction | speed MPH | gust MPH | rain 1hr in | rain 24hr in | rain mn in | humidity % | barometer mb |
| 20260509233240 | 87 | 185 | 7.0 | 9.0 | 0.00 | 0.01 | 0.01 | 47 | |
| 20260509232736 | 88 | 143 | 8.0 | 10.0 | 0.00 | 0.01 | 0.01 | 46 | |
| 20260509232233 | 88 | 181 | 4.0 | 10.0 | 0.00 | 0.01 | 0.01 | 46 | |
| 20260509231730 | 88 | 135 | 3.0 | 8.0 | 0.00 | 0.01 | 0.01 | 49 | |
| 20260509231227 | 88 | 97 | 3.0 | 5.0 | 0.00 | 0.01 | 0.01 | 53 | |
| 20260509230725 | 88 | 108 | 6.0 | 8.0 | 0.00 | 0.01 | 0.01 | 53 | |
| 20260509230221 | 88 | 107 | 4.0 | 6.0 | 0.00 | 0.01 | 0.01 | 52 | |
| 20260509225716 | 89 | 163 | 2.0 | 7.0 | 0.00 | 0.01 | 0.01 | 52 | |
| 20260509225212 | 89 | 113 | 2.0 | 5.0 | 0.00 | 0.01 | 0.01 | 50 | |
| 20260509224708 | 88 | 123 | 6.0 | 10.0 | 0.00 | 0.01 | 0.01 | 51 | |
| 20260509224205 | 88 | 93 | 1.0 | 7.0 | 0.00 | 0.01 | 0.01 | 52 | |
| 20260509223702 | 88 | 94 | 1.0 | 6.0 | 0.00 | 0.01 | 0.01 | 52 | |
| 20260509223159 | 87 | 118 | 5.0 | 7.0 | 0.00 | 0.01 | 0.01 | 51 | |
| 20260509222656 | 87 | 136 | 5.0 | 7.0 | 0.00 | 0.01 | 0.01 | 53 | |
| 20260509222152 | 87 | 80 | 4.0 | 8.0 | 0.00 | 0.01 | 0.01 | 52 | |
| 20260509221648 | 87 | 78 | 3.0 | 9.0 | 0.00 | 0.01 | 0.01 | 53 | |
| 20260509221143 | 87 | 176 | 1.0 | 6.0 | 0.00 | 0.01 | 0.01 | 53 | |
| 20260509220640 | 87 | 61 | 1.0 | 7.0 | 0.00 | 0.01 | 0.01 | 54 | |
| 20260509220136 | 87 | 139 | 3.0 | 7.0 | 0.00 | 0.01 | 0.01 | 54 | |
| 20260509215632 | 86 | 147 | 4.0 | 6.0 | 0.00 | 0.01 | 0.01 | 55 | |
| 20260509215129 | 86 | 89 | 5.0 | 6.0 | 0.00 | 0.01 | 0.01 | 54 | |
| 20260509214626 | 85 | 138 | 5.0 | 10.0 | 0.00 | 0.01 | 0.01 | 54 | |
| 20260509214123 | 83 | 91 | 8.0 | 11.0 | 0.00 | 0.01 | 0.01 | 56 | |
| 20260509213619 | 83 | 145 | 6.0 | 13.0 | 0.00 | 0.01 | 0.01 | 56 | |
| 20260509213115 | 83 | 152 | 11.0 | 14.0 | 0.00 | 0.01 | 0.01 | 54 | |
| 20260509212613 | 83 | 104 | 7.0 | 14.0 | 0.00 | 0.01 | 0.01 | 54 | |
| 20260509212110 | 84 | 109 | 12.0 | 16.0 | 0.00 | 0.01 | 0.01 | 53 | |
| 20260509211606 | 84 | 145 | 9.0 | 14.0 | 0.00 | 0.01 | 0.01 | 54 | |
| 20260509211103 | 87 | 116 | 8.0 | 14.0 | 0.00 | 0.01 | 0.01 | 51 | |
| 20260509210559 | 92 | 111 | 3.0 | 5.0 | 0.00 | 0.01 | 0.01 | 44 | |
| 20260509210056 | 91 | 91 | 3.0 | 5.0 | 0.00 | 0.01 | 0.01 | 44 | |
| 20260509205550 | 92 | 335 | 6.0 | 9.0 | 0.00 | 0.01 | 0.01 | 45 | |
| 20260509205045 | 93 | 218 | 5.0 | 6.0 | 0.00 | 0.01 | 0.01 | 42 | |
| 20260509204542 | 91 | 73 | 1.0 | 3.0 | 0.00 | 0.01 | 0.01 | 44 | |
| 20260509204038 | 90 | 10 | 2.0 | 8.0 | 0.00 | 0.01 | 0.01 | 46 | |
| 20260509203534 | 89 | 352 | 7.0 | 7.0 | 0.00 | 0.01 | 0.01 | 48 | |
| 20260509203033 | 88 | 316 | 2.0 | 2.0 | 0.00 | 0.01 | 0.01 | 50 | |
| 20260509202527 | 89 | 273 | 0.0 | 5.0 | 0.00 | 0.01 | 0.01 | 52 | |
| 20260509202023 | 89 | 245 | 7.0 | 9.0 | 0.00 | 0.01 | 0.01 | 49 | |
| 20260509201518 | 88 | 248 | 5.0 | 8.0 | 0.00 | 0.01 | 0.01 | 51 | |
| 20260509201016 | 91 | 266 | 4.0 | 6.0 | 0.00 | 0.01 | 0.01 | 46 | |
| 20260509200510 | 91 | 23 | 0.0 | 3.0 | 0.00 | 0.01 | 0.01 | 43 | |
| 20260509200007 | 89 | 74 | 2.0 | 7.0 | 0.00 | 0.01 | 0.01 | 51 | |
| 20260509195502 | 88 | 207 | 1.0 | 7.0 | 0.00 | 0.01 | 0.01 | 50 | |
| 20260509195002 | 87 | 240 | 4.0 | 6.0 | 0.00 | 0.01 | 0.01 | 54 | |
| 20260509194457 | 88 | 309 | 4.0 | 7.0 | 0.00 | 0.01 | 0.01 | 54 | |
| 20260509193955 | 88 | 278 | 7.0 | 10.0 | 0.00 | 0.01 | 0.01 | 54 | |
| 20260509193454 | 89 | 279 | 5.0 | 7.0 | 0.00 | 0.01 | 0.01 | 53 | |
| 20260509192951 | 89 | 122 | 3.0 | 5.0 | 0.00 | 0.01 | 0.01 | 52 | |
| 20260509192448 | 89 | 229 | 9.0 | 11.0 | 0.00 | 0.01 | 0.01 | 53 | |
| 20260509191943 | 88 | 332 | 3.0 | 6.0 | 0.00 | 0.01 | 0.01 | 56 | |
| 20260509191438 | 88 | 240 | 4.0 | 5.0 | 0.00 | 0.01 | 0.01 | 55 | |
| 20260509190934 | 88 | 235 | 7.0 | 8.0 | 0.00 | 0.01 | 0.01 | 55 | |
| 20260509190432 | 89 | 258 | 6.0 | 9.0 | 0.00 | 0.01 | 0.01 | 54 | |
| 20260509185929 | 87 | 223 | 3.0 | 7.0 | 0.00 | 0.01 | 0.01 | 58 | |
| 20260509185426 | 86 | 245 | 3.0 | 5.0 | 0.00 | 0.01 | 0.01 | 59 | |
| 20260509184923 | 84 | 321 | 0.0 | 3.0 | 0.00 | 0.01 | 0.01 | 63 | |
| 20260509184421 | 85 | 291 | 5.0 | 6.0 | 0.00 | 0.01 | 0.01 | 63 | |
| 20260509183917 | 85 | 313 | 2.0 | 3.0 | 0.00 | 0.01 | 0.01 | 62 | |
| 20260509183411 | 85 | 328 | 3.0 | 6.0 | 0.00 | 0.01 | 0.01 | 62 | |
| 20260509182908 | 86 | 61 | 1.0 | 3.0 | 0.00 | 0.01 | 0.01 | 59 | |
| 20260509182405 | 86 | 198 | 3.0 | 5.0 | 0.00 | 0.01 | 0.01 | 58 | |
| 20260509181902 | 87 | 138 | 2.0 | 8.0 | 0.00 | 0.01 | 0.01 | 59 | |
| 20260509181400 | 87 | 264 | 6.0 | 7.0 | 0.00 | 0.01 | 0.01 | 59 | |
| 20260509180857 | 87 | 328 | 1.0 | 6.0 | 0.00 | 0.01 | 0.01 | 61 | |
| 20260509180352 | 87 | 301 | 4.0 | 7.0 | 0.00 | 0.01 | 0.01 | 62 | |
| 20260509175849 | 85 | 29 | 2.0 | 5.0 | 0.00 | 0.01 | 0.01 | 63 | |
| 20260509175346 | 86 | 242 | 3.0 | 8.0 | 0.00 | 0.01 | 0.01 | 63 | |
| 20260509174841 | 85 | 293 | 3.0 | 5.0 | 0.00 | 0.01 | 0.01 | 65 | |
| 20260509174338 | 86 | 333 | 3.0 | 7.0 | 0.00 | 0.01 | 0.01 | 62 | |
| 20260509173834 | 83 | 335 | 3.0 | 6.0 | 0.00 | 0.01 | 0.01 | 69 | |
| 20260509173329 | 84 | 252 | 5.0 | 8.0 | 0.00 | 0.01 | 0.01 | 67 | |
| 20260509172825 | 85 | 311 | 5.0 | 6.0 | 0.00 | 0.01 | 0.01 | 65 | |
| 20260509172322 | 83 | 196 | 3.0 | 7.0 | 0.00 | 0.01 | 0.01 | 66 | |
| 20260509171818 | 83 | 252 | 8.0 | 9.0 | 0.00 | 0.01 | 0.01 | 66 | |
| 20260509171314 | 82 | 221 | 5.0 | 9.0 | 0.00 | 0.01 | 0.01 | 70 | |
| 20260509170811 | 83 | 282 | 5.0 | 9.0 | 0.00 | 0.01 | 0.01 | 70 | |
| 20260509170307 | 83 | 156 | 5.0 | 9.0 | 0.00 | 0.01 | 0.01 | 70 | |
| 20260509165806 | 84 | 193 | 7.0 | 8.0 | 0.00 | 0.01 | 0.01 | 69 | |
| 20260509165301 | 82 | 123 | 3.0 | 6.0 | 0.00 | 0.01 | 0.01 | 71 | |
| 20260509164757 | 82 | 214 | 5.0 | 6.0 | 0.00 | 0.01 | 0.01 | 72 | |
| 20260509164254 | 82 | 236 | 6.0 | 8.0 | 0.00 | 0.01 | 0.01 | 72 | |
| 20260509163750 | 81 | 209 | 4.0 | 7.0 | 0.00 | 0.01 | 0.01 | 75 | |
| 20260509163247 | 81 | 248 | 4.0 | 7.0 | 0.00 | 0.01 | 0.01 | 74 | |
| 20260509162745 | 81 | 223 | 5.0 | 10.0 | 0.00 | 0.01 | 0.01 | 74 | |
| 20260509162239 | 80 | 232 | 2.0 | 5.0 | 0.00 | 0.01 | 0.01 | 76 | |
| 20260509161736 | 80 | 203 | 7.0 | 9.0 | 0.00 | 0.01 | 0.01 | 76 | |
| 20260509161232 | 79 | 234 | 1.0 | 5.0 | 0.00 | 0.01 | 0.01 | 79 | |
| 20260509160727 | 79 | 254 | 3.0 | 5.0 | 0.00 | 0.01 | 0.01 | 79 | |
| 20260509160224 | 80 | 198 | 5.0 | 8.0 | 0.00 | 0.01 | 0.01 | 78 | |
| 20260509155718 | 78 | 242 | 4.0 | 6.0 | 0.00 | 0.01 | 0.01 | 81 | |
| 20260509155216 | 78 | 245 | 4.0 | 8.0 | 0.00 | 0.01 | 0.01 | 83 | |
| 20260509154711 | 77 | 230 | 3.0 | 7.0 | 0.00 | 0.01 | 0.01 | 84 | |
| 20260509154209 | 77 | 259 | 5.0 | 7.0 | 0.00 | 0.01 | 0.01 | 85 | |
| 20260509153706 | 76 | 221 | 6.0 | 8.0 | 0.00 | 0.01 | 0.01 | 88 | |
| 20260509153202 | 76 | 219 | 7.0 | 9.0 | 0.00 | 0.01 | 0.01 | 88 | |
| 20260509152658 | 75 | 181 | 5.0 | 8.0 | 0.00 | 0.01 | 0.01 | 90 | |
| 20260509152155 | 74 | 172 | 6.0 | 7.0 | 0.00 | 0.01 | 0.01 | 91 | |
| 20260509151652 | 75 | 201 | 5.0 | 10.0 | 0.00 | 0.01 | 0.01 | 91 | |
| 20260509151149 | 74 | 202 | 5.0 | 9.0 | 0.00 | 0.01 | 0.01 | 91 | |
| 20260509150647 | 74 | 179 | 4.0 | 7.0 | 0.00 | 0.01 | 0.01 | 92 | |
| 20260509150145 | 74 | 170 | 5.0 | 8.0 | 0.00 | 0.01 | 0.01 | 91 | |
| 20260509145641 | 74 | 133 | 4.0 | 7.0 | 0.00 | 0.01 | 0.01 | 92 | |
| 20260509145136 | 74 | 196 | 5.0 | 9.0 | 0.00 | 0.01 | 0.01 | 92 | |
| 20260509144633 | 74 | 161 | 3.0 | 8.0 | 0.00 | 0.01 | 0.01 | 94 | |
| 20260509144130 | 73 | 124 | 1.0 | 6.0 | 0.00 | 0.01 | 0.01 | 95 | |
| 20260509143627 | 73 | 125 | 5.0 | 7.0 | 0.00 | 0.01 | 0.01 | 97 | |
| 20260509143125 | 73 | 171 | 4.0 | 7.0 | 0.00 | 0.01 | 0.01 | 97 | |
| 20260509142620 | 73 | 179 | 9.0 | 10.0 | 0.00 | 0.01 | 0.01 | 98 | |
| 20260509142117 | 74 | 166 | 7.0 | 9.0 | 0.00 | 0.01 | 0.01 | 98 | |
| 20260509141613 | 73 | 174 | 6.0 | 10.0 | 0.00 | 0.01 | 0.01 | 98 | |
| 20260509141109 | 73 | 132 | 5.0 | 7.0 | 0.00 | 0.01 | 0.01 | 98 | |
| 20260509140606 | 73 | 185 | 5.0 | 7.0 | 0.00 | 0.01 | 0.01 | 98 | |
| 20260509140104 | 72 | 193 | 5.0 | 7.0 | 0.00 | 0.01 | 0.01 | 98 | |
| 20260509135601 | 71 | 180 | 5.0 | 6.0 | 0.00 | 0.01 | 0.01 | 99 | |
| 20260509135059 | 72 | 141 | 4.0 | 5.0 | 0.00 | 0.01 | 0.01 | 99 | |
| 20260509134555 | 71 | 109 | 0.0 | 0.0 | 0.00 | 0.01 | 0.01 | 99 | |
| 20260509134053 | 71 | 56 | 0.0 | 1.0 | 0.00 | 0.01 | 0.01 | 99 | |
| 20260509133550 | 71 | 11 | 0.0 | 2.0 | 0.00 | 0.01 | 0.01 | 99 | |
| 20260509133047 | 72 | 358 | 3.0 | 3.0 | 0.00 | 0.01 | 0.01 | 99 | |
| 20260509132546 | 71 | 311 | 0.0 | 2.0 | 0.00 | 0.01 | 0.01 | 99 | |
| 20260509132044 | 71 | 327 | 4.0 | 5.0 | 0.00 | 0.01 | 0.01 | 99 | |
| 20260509131539 | 71 | 315 | 3.0 | 5.0 | 0.00 | 0.01 | 0.01 | 99 | |
| 20260509131036 | 71 | 17 | 2.0 | 3.0 | 0.00 | 0.01 | 0.01 | 99 | |
| 20260509130532 | 71 | 333 | 5.0 | 6.0 | 0.00 | 0.01 | 0.01 | 99 | |
| 20260509130029 | 71 | 351 | 3.0 | 3.0 | 0.00 | 0.01 | 0.01 | 99 | |
| 20260509125525 | 71 | 328 | 2.0 | 3.0 | 0.00 | 0.01 | 0.01 | 99 | |
| 20260509125022 | 71 | 322 | 3.0 | 3.0 | 0.00 | 0.01 | 0.01 | 99 | |
| 20260509124519 | 71 | 357 | 5.0 | 5.0 | 0.00 | 0.01 | 0.01 | 99 | |
| 20260509124016 | 71 | 60 | 1.0 | 2.0 | 0.00 | 0.01 | 0.01 | 99 | |
| 20260509123514 | 71 | 352 | 0.0 | 1.0 | 0.00 | 0.01 | 0.01 | 99 | |
| 20260509123010 | 71 | 19 | 0.0 | 0.0 | 0.00 | 0.01 | 0.01 | 99 | |
| 20260509122506 | 71 | 18 | 0.0 | 0.0 | 0.00 | 0.01 | 0.01 | 99 | |
| 20260509122003 | 71 | 22 | 0.0 | 1.0 | 0.00 | 0.01 | 0.01 | 98 | |
| 20260509121500 | 71 | 30 | 0.0 | 1.0 | 0.00 | 0.01 | 0.01 | 98 | |
| 20260509120958 | 71 | 11 | 0.0 | 0.0 | 0.00 | 0.01 | 0.01 | 98 | |
| 20260509120455 | 71 | 26 | 0.0 | 0.0 | 0.00 | 0.01 | 0.01 | 98 | |
| 20260509115954 | 71 | 26 | 0.0 | 2.0 | 0.00 | 0.01 | 0.01 | 98 | |
| 20260509115450 | 71 | 326 | 2.0 | 2.0 | 0.00 | 0.01 | 0.01 | 98 | |
| 20260509114948 | 71 | 8 | 0.0 | 0.0 | 0.00 | 0.01 | 0.01 | 98 | |
| 20260509114446 | 71 | 12 | 0.0 | 0.0 | 0.00 | 0.01 | 0.01 | 98 | |
| 20260509113945 | 71 | 19 | 1.0 | 5.0 | 0.00 | 0.01 | 0.01 | 98 | |
| 20260509113442 | 71 | 6 | 3.0 | 5.0 | 0.00 | 0.01 | 0.01 | 98 | |
| 20260509112939 | 71 | 356 | 2.0 | 3.0 | 0.00 | 0.01 | 0.01 | 98 | |
| 20260509112436 | 71 | 44 | 0.0 | 0.0 | 0.00 | 0.01 | 0.01 | 98 | |
| 20260509111933 | 71 | 67 | 0.0 | 1.0 | 0.00 | 0.01 | 0.01 | 98 | |
| 20260509111431 | 71 | 66 | 2.0 | 3.0 | 0.00 | 0.01 | 0.01 | 98 | |
| 20260509110928 | 71 | 31 | 2.0 | 5.0 | 0.00 | 0.01 | 0.01 | 98 | |
| 20260509110423 | 71 | 55 | 1.0 | 3.0 | 0.00 | 0.01 | 0.01 | 98 | |
| 20260509105922 | 71 | 59 | 2.0 | 5.0 | 0.00 | 0.01 | 0.01 | 98 | |
| 20260509105420 | 71 | 50 | 3.0 | 5.0 | 0.00 | 0.01 | 0.01 | 98 | |
| 20260509104917 | 71 | 44 | 0.0 | 5.0 | 0.00 | 0.01 | 0.01 | 98 | |
| 20260509104413 | 71 | 27 | 3.0 | 5.0 | 0.00 | 0.01 | 0.01 | 98 | |
| 20260509103911 | 71 | 37 | 3.0 | 5.0 | 0.00 | 0.01 | 0.01 | 98 | |
| 20260509103408 | 71 | 26 | 2.0 | 3.0 | 0.00 | 0.01 | 0.01 | 98 | |
| 20260509102907 | 71 | 13 | 3.0 | 3.0 | 0.00 | 0.01 | 0.01 | 98 | |
| 20260509102404 | 71 | 24 | 2.0 | 3.0 | 0.00 | 0.01 | 0.01 | 98 | |
| 20260509101859 | 71 | 33 | 2.0 | 2.0 | 0.00 | 0.01 | 0.01 | 98 | |
| 20260509101355 | 71 | 70 | 1.0 | 1.0 | 0.00 | 0.01 | 0.01 | 98 | |
| 20260509100854 | 71 | 85 | 1.0 | 2.0 | 0.00 | 0.01 | 0.01 | 98 | |
| 20260509100350 | 71 | 75 | 0.0 | 0.0 | 0.00 | 0.01 | 0.01 | 98 | |
| 20260509095847 | 71 | 71 | 1.0 | 2.0 | 0.00 | 0.01 | 0.01 | 98 | |
| 20260509095344 | 71 | 137 | 0.0 | 0.0 | 0.00 | 0.01 | 0.01 | 98 | |
| 20260509094841 | 71 | 138 | 0.0 | 0.0 | 0.00 | 0.01 | 0.01 | 98 | |
| 20260509094338 | 71 | 89 | 0.0 | 1.0 | 0.00 | 0.01 | 0.01 | 98 | |
| 20260509093836 | 71 | 80 | 2.0 | 2.0 | 0.00 | 0.01 | 0.01 | 98 | |
| 20260509093332 | 71 | 75 | 0.0 | 0.0 | 0.00 | 0.01 | 0.01 | 98 | |
| 20260509092831 | 71 | 74 | 1.0 | 2.0 | 0.00 | 0.01 | 0.01 | 97 | |
| 20260509092328 | 71 | 92 | 0.0 | 0.0 | 0.00 | 0.01 | 0.01 | 97 | |
| 20260509091826 | 71 | 88 | 2.0 | 3.0 | 0.00 | 0.01 | 0.01 | 97 | |
| 20260509091323 | 71 | 88 | 0.0 | 1.0 | 0.00 | 0.01 | 0.01 | 97 | |
| 20260509090820 | 71 | 122 | 0.0 | 0.0 | 0.00 | 0.01 | 0.01 | 97 | |
| 20260509090318 | 71 | 95 | 3.0 | 3.0 | 0.07 | 0.01 | 0.01 | 97 | |
| 20260509085815 | 71 | 81 | 2.0 | 2.0 | 0.07 | 0.01 | 0.01 | 97 | |
| 20260509085313 | 71 | 64 | 0.0 | 2.0 | 0.00 | 0.00 | 0.00 | 97 | |
| 20260509084809 | 71 | 60 | 2.0 | 2.0 | 0.00 | 0.00 | 0.00 | 97 | |
| 20260509084306 | 71 | 31 | 1.0 | 2.0 | 0.00 | 0.00 | 0.00 | 97 | |
| 20260509083803 | 71 | 32 | 3.0 | 3.0 | 0.00 | 0.00 | 0.00 | 96 | |
| 20260509083300 | 71 | 0 | 3.0 | 3.0 | 0.00 | 0.00 | 0.00 | 96 | |
| 20260509082756 | 71 | 17 | 0.0 | 1.0 | 0.00 | 0.00 | 0.00 | 96 | |
| 20260509082253 | 71 | 47 | 2.0 | 2.0 | 0.00 | 0.00 | 0.00 | 96 | |
| 20260509081750 | 71 | 37 | 0.0 | 0.0 | 0.00 | 0.00 | 0.00 | 96 | |
| 20260509081247 | 72 | 39 | 0.0 | 0.0 | 0.00 | 0.00 | 0.00 | 95 | |
| 20260509080745 | 72 | 37 | 0.0 | 0.0 | 0.00 | 0.00 | 0.00 | 95 | |
| 20260509080243 | 72 | 36 | 0.0 | 0.0 | 0.00 | 0.00 | 0.00 | 95 | |
| 20260509075741 | 72 | 34 | 0.0 | 0.0 | 0.00 | 0.00 | 0.00 | 95 | |
| 20260509075238 | 72 | 34 | 0.0 | 0.0 | 0.00 | 0.00 | 0.00 | 95 | |
| 20260509074735 | 72 | 49 | 0.0 | 0.0 | 0.00 | 0.00 | 0.00 | 95 | |
| 20260509074233 | 72 | 14 | 0.0 | 2.0 | 0.00 | 0.00 | 0.00 | 95 | |
| 20260509073728 | 72 | 61 | 1.0 | 1.0 | 0.00 | 0.00 | 0.00 | 94 | |
| 20260509073225 | 72 | 59 | 2.0 | 5.0 | 0.00 | 0.00 | 0.00 | 94 | |
| 20260509072722 | 72 | 102 | 1.0 | 2.0 | 0.00 | 0.00 | 0.00 | 94 | |
| 20260509072219 | 72 | 130 | 3.0 | 5.0 | 0.00 | 0.00 | 0.00 | 94 | |
| 20260509071715 | 72 | 133 | 1.0 | 2.0 | 0.00 | 0.00 | 0.00 | 94 | |
| 20260509071213 | 72 | 128 | 1.0 | 2.0 | 0.00 | 0.00 | 0.00 | 94 | |
| 20260509070709 | 72 | 180 | 1.0 | 2.0 | 0.00 | 0.00 | 0.00 | 94 | |
| 20260509070206 | 72 | 153 | 3.0 | 3.0 | 0.00 | 0.00 | 0.00 | 94 | |
| 20260509065702 | 72 | 140 | 1.0 | 2.0 | 0.00 | 0.00 | 0.00 | 94 | |
| 20260509065158 | 72 | 187 | 3.0 | 5.0 | 0.00 | 0.00 | 0.00 | 93 | |
| 20260509064655 | 72 | 167 | 0.0 | 2.0 | 0.00 | 0.00 | 0.00 | 93 | |
| 20260509064153 | 72 | 217 | 0.0 | 1.0 | 0.00 | 0.00 | 0.00 | 93 | |
| 20260509063650 | 72 | 183 | 1.0 | 2.0 | 0.00 | 0.00 | 0.00 | 93 | |
| 20260509063146 | 72 | 162 | 3.0 | 6.0 | 0.00 | 0.00 | 0.00 | 93 | |
| 20260509062643 | 72 | 179 | 4.0 | 7.0 | 0.00 | 0.00 | 0.00 | 93 | |
| 20260509062140 | 72 | 179 | 3.0 | 5.0 | 0.00 | 0.00 | 0.00 | 93 | |
| 20260509061637 | 72 | 187 | 8.0 | 9.0 | 0.00 | 0.00 | 0.00 | 93 | |
| 20260509061135 | 72 | 163 | 6.0 | 8.0 | 0.00 | 0.00 | 0.00 | 93 | |
| 20260509060632 | 72 | 199 | 5.0 | 7.0 | 0.00 | 0.00 | 0.00 | 93 | |
| 20260509060128 | 72 | 152 | 5.0 | 8.0 | 0.00 | 0.00 | 0.00 | 93 | |
| 20260509055624 | 72 | 195 | 5.0 | 8.0 | 0.00 | 0.00 | 0.00 | 93 | |
| 20260509055120 | 72 | 161 | 5.0 | 9.0 | 0.00 | 0.00 | 0.00 | 93 | |
| 20260509054617 | 72 | 177 | 5.0 | 8.0 | 0.00 | 0.00 | 0.00 | 93 | |
| 20260509054114 | 72 | 204 | 6.0 | 7.0 | 0.00 | 0.00 | 0.00 | 93 | |
| 20260509053613 | 72 | 192 | 7.0 | 10.0 | 0.00 | 0.00 | 0.00 | 93 | |
| 20260509053109 | 71 | 187 | 1.0 | 9.0 | 0.00 | 0.00 | 0.00 | 93 | |
| 20260509052607 | 71 | 130 | 5.0 | 7.0 | 0.00 | 0.00 | 0.00 | 93 | |
| 20260509052105 | 71 | 156 | 1.0 | 7.0 | 0.00 | 0.00 | 0.00 | 93 | |
| 20260509051602 | 71 | 189 | 5.0 | 6.0 | 0.00 | 0.00 | 0.00 | 93 | |
| 20260509051059 | 71 | 168 | 2.0 | 5.0 | 0.00 | 0.00 | 0.00 | 93 | |
| 20260509050556 | 71 | 161 | 0.0 | 2.0 | 0.00 | 0.00 | 0.00 | 93 | |
| 20260509050052 | 71 | 170 | 3.0 | 6.0 | 0.00 | 0.00 | 0.00 | 92 | |
| 20260509045550 | 71 | 158 | 3.0 | 7.0 | 0.00 | 0.00 | 0.00 | 92 | |
| 20260509045047 | 71 | 142 | 3.0 | 8.0 | 0.00 | 0.00 | 0.00 | 92 | |
| 20260509044544 | 71 | 125 | 4.0 | 5.0 | 0.00 | 0.00 | 0.00 | 92 | |
| 20260509044042 | 71 | 193 | 1.0 | 2.0 | 0.00 | 0.00 | 0.00 | 92 | |
| 20260509043538 | 71 | 172 | 3.0 | 5.0 | 0.00 | 0.00 | 0.00 | 92 | |
| 20260509043033 | 72 | 175 | 0.0 | 2.0 | 0.00 | 0.00 | 0.00 | 91 | |
| 20260509042530 | 72 | 168 | 2.0 | 2.0 | 0.00 | 0.00 | 0.00 | 91 | |
| 20260509042026 | 72 | 195 | 2.0 | 2.0 | 0.00 | 0.00 | 0.00 | 91 | |
| 20260509041523 | 72 | 179 | 2.0 | 3.0 | 0.00 | 0.00 | 0.00 | 90 | |
| 20260509041021 | 73 | 172 | 1.0 | 3.0 | 0.00 | 0.00 | 0.00 | 90 | |
| 20260509040519 | 73 | 149 | 3.0 | 6.0 | 0.00 | 0.00 | 0.00 | 90 | |
| 20260509040015 | 73 | 124 | 1.0 | 5.0 | 0.00 | 0.00 | 0.00 | 90 | |
| 20260509035512 | 72 | 184 | 2.0 | 5.0 | 0.00 | 0.00 | 0.00 | 90 | |
| 20260509035009 | 72 | 167 | 1.0 | 2.0 | 0.00 | 0.00 | 0.00 | 90 | |
| 20260509034508 | 72 | 165 | 2.0 | 3.0 | 0.00 | 0.00 | 0.00 | 90 | |
| 20260509034004 | 72 | 193 | 0.0 | 1.0 | 0.00 | 0.00 | 0.00 | 90 | |
| 20260509033501 | 72 | 179 | 0.0 | 0.0 | 0.00 | 0.00 | 0.00 | 90 | |
| 20260509032957 | 72 | 179 | 0.0 | 1.0 | 0.00 | 0.00 | 0.00 | 90 | |
| 20260509032455 | 72 | 179 | 0.0 | 1.0 | 0.00 | 0.00 | 0.00 | 89 | |
| 20260509031952 | 72 | 174 | 0.0 | 2.0 | 0.00 | 0.00 | 0.00 | 89 | |
| 20260509031449 | 73 | 191 | 1.0 | 3.0 | 0.00 | 0.00 | 0.00 | 89 | |
| 20260509030947 | 73 | 126 | 2.0 | 2.0 | 0.00 | 0.00 | 0.00 | 88 | |
| 20260509030444 | 73 | 199 | 1.0 | 3.0 | 0.00 | 0.00 | 0.00 | 88 | |
| 20260509025941 | 73 | 173 | 2.0 | 5.0 | 0.00 | 0.00 | 0.00 | 88 | |
| 20260509025437 | 73 | 202 | 3.0 | 8.0 | 0.00 | 0.00 | 0.00 | 87 | |
| 20260509024932 | 73 | 129 | 4.0 | 5.0 | 0.00 | 0.00 | 0.00 | 87 | |
| 20260509024429 | 73 | 164 | 3.0 | 6.0 | 0.00 | 0.00 | 0.00 | 87 | |
| 20260509023926 | 73 | 136 | 3.0 | 3.0 | 0.00 | 0.00 | 0.00 | 87 | |
| 20260509023423 | 73 | 143 | 4.0 | 5.0 | 0.00 | 0.00 | 0.00 | 87 | |
| 20260509022919 | 73 | 140 | 2.0 | 5.0 | 0.00 | 0.00 | 0.00 | 87 | |
| 20260509022417 | 73 | 155 | 0.0 | 2.0 | 0.00 | 0.00 | 0.00 | 86 | |
| 20260509021914 | 73 | 179 | 1.0 | 3.0 | 0.00 | 0.00 | 0.00 | 86 | |
| 20260509021411 | 73 | 147 | 3.0 | 3.0 | 0.00 | 0.00 | 0.00 | 87 | |
| 20260509020908 | 73 | 142 | 2.0 | 2.0 | 0.00 | 0.00 | 0.00 | 86 | |
| 20260509020407 | 74 | 121 | 1.0 | 2.0 | 0.00 | 0.00 | 0.00 | 86 | |
| 20260509015903 | 74 | 133 | 3.0 | 6.0 | 0.00 | 0.00 | 0.00 | 86 | |
| 20260509015402 | 74 | 129 | 4.0 | 7.0 | 0.00 | 0.00 | 0.00 | 85 | |
| 20260509014858 | 74 | 137 | 3.0 | 5.0 | 0.00 | 0.00 | 0.00 | 85 | |
| 20260509014355 | 74 | 138 | 6.0 | 9.0 | 0.00 | 0.00 | 0.00 | 85 | |
| 20260509013851 | 74 | 125 | 7.0 | 9.0 | 0.00 | 0.00 | 0.00 | 84 | |
| 20260509013348 | 75 | 137 | 7.0 | 9.0 | 0.00 | 0.00 | 0.00 | 84 | |
| 20260509012844 | 75 | 140 | 5.0 | 9.0 | 0.00 | 0.00 | 0.00 | 83 | |
| 20260509012341 | 75 | 160 | 3.0 | 7.0 | 0.00 | 0.00 | 0.00 | 82 | |
| 20260509011838 | 75 | 147 | 4.0 | 6.0 | 0.00 | 0.00 | 0.00 | 82 | |
| 20260509011336 | 76 | 126 | 2.0 | 6.0 | 0.00 | 0.00 | 0.00 | 81 | |
| 20260509010833 | 76 | 156 | 5.0 | 6.0 | 0.00 | 0.00 | 0.00 | 81 | |
| 20260509010330 | 76 | 165 | 3.0 | 6.0 | 0.00 | 0.00 | 0.00 | 81 | |
| 20260509005827 | 76 | 143 | 3.0 | 7.0 | 0.00 | 0.00 | 0.00 | 81 | |
| 20260509005326 | 76 | 139 | 5.0 | 7.0 | 0.00 | 0.00 | 0.00 | 80 | |
| 20260509004825 | 76 | 218 | 2.0 | 5.0 | 0.00 | 0.00 | 0.00 | 80 | |
| 20260509004322 | 76 | 172 | 4.0 | 7.0 | 0.00 | 0.00 | 0.00 | 80 | |
| 20260509003820 | 76 | 145 | 4.0 | 6.0 | 0.00 | 0.00 | 0.00 | 80 | |
| 20260509003318 | 76 | 178 | 5.0 | 7.0 | 0.00 | 0.00 | 0.00 | 80 | |
| 20260509002815 | 76 | 165 | 3.0 | 6.0 | 0.00 | 0.00 | 0.00 | 79 | |
| 20260509002312 | 77 | 205 | 5.0 | 7.0 | 0.00 | 0.00 | 0.00 | 79 | |
| 20260509001810 | 76 | 128 | 4.0 | 7.0 | 0.00 | 0.00 | 0.00 | 79 | |
| 20260509001305 | 77 | 145 | 3.0 | 6.0 | 0.00 | 0.00 | 0.00 | 79 | |
| 20260509000803 | 77 | 180 | 5.0 | 8.0 | 0.00 | 0.00 | 0.00 | 78 | |
| 20260509000303 | 77 | 193 | 2.0 | 7.0 | 0.00 | 0.00 | 0.00 | 78 | |
| 20260508235757 | 77 | 133 | 5.0 | 8.0 | 0.00 | 0.00 | 0.00 | 77 | |
| 20260508235254 | 77 | 143 | 1.0 | 6.0 | 0.00 | 0.00 | 0.00 | 78 | |
| 20260508234751 | 77 | 135 | 7.0 | 9.0 | 0.00 | 0.00 | 0.00 | 78 | |
| 20260508234247 | 77 | 155 | 6.0 | 8.0 | 0.00 | 0.00 | 0.00 | 78 | |
| 20260508233741 | 77 | 159 | 4.0 | 8.0 | 0.00 | 0.00 | 0.00 | 77 |